Regional Weather Roundup
Issued by NWS

Home | Current Version | Previous Version | Text Only | Print | Product List | Glossary On
Versions: 1 2 3 4 5 6 7 8 9 10 11 12 13 14 15 16 17 18 19 20 21 22 23 24 25 26 27 28 29 30 31 32 33 34 35 36 37 38 39 40 41 42 43 44 45 46 47 48 49 50
000
ASUS43 KMPX 051810
RWRMN
WEATHER ROUNDUP FOR MINNESOTA
NATIONAL WEATHER SERVICE TWIN CITIES/CHANHASSEN MN
1200 PM CST THU MAR 05 2015


NOTE: "FAIR" INDICATES FEW OR NO CLOUDS BELOW 12,000 FEET WITH NO
SIGNIFICANT WEATHER AND/OR OBSTRUCTIONS TO VISIBILITY. N/A MEANS
CURRENT SKY AND/OR WEATHER CONDITIONS ARE NOT AVAILABLE.

MNZ060>063-068>070-051900-
   Twin Cities Metro

CITY           SKY/WX    TMP DP  RH WIND       PRES   REMARKS
TWIN CITIES    FAIR       8  -6  52 W8        30.50F WCI  -4
6HR MIN TEMP:  -7; 6HR MAX TEMP:   8;

ST PAUL        FAIR       9  -6  50 W7        30.52F WCI  -2
CRYSTAL        FAIR       8  -5  55 SW9       30.49F WCI  -5
BLAINE         SUNNY      9  -4  56 SW7       30.48F WCI  -3
LAKEVILLE      FAIR       7  -6  56 W6        30.49F WCI  -3
EDEN PRAIRIE   FAIR       9  -4  55 SW9       30.49F WCI  -4
6HR MIN TEMP:  -9; 6HR MAX TEMP:   9;

SOUTH ST PAUL  FAIR       9  -6  51 SW5       30.51F WCI   0
LAKE ELMO      FAIR       9  -4  56 SW6       30.50F WCI  -1
$$
MNZ001>005-007-008-013>017-022>024-027-028-051900-
   Northwest Minnesota

CITY           SKY/WX    TMP DP  RH WIND       PRES   REMARKS
BEMIDJI        FAIR       9  -6  49 S9        30.29F WCI  -4
HALLOCK        FAIR       7  -2  66 S20       30.23F WCI -13
ROSEAU         FAIR       9  -6  52 SW13      30.24F WCI  -7
WARROAD        FAIR       7  -6  56 SW12G18   30.25F WCI  -9
THIEF RVR FALL FAIR       9  -4  56 S17       30.26F WCI -10
CROOKSTON      FAIR      14   3  62 S22       30.29F WCI  -4
FOSSTON        FAIR       9  -4  56 S18       30.29F WCI -10
DETROIT LAKES  FAIR       9  -4  56 S13       30.33F WCI  -7
MOORHEAD       FAIR      12  -2  52 S17G23    30.34F WCI  -5
PARK RAPIDS    FAIR       7  -6  55 SW10      30.32F WCI  -8
MAHNOMEN       FAIR       9  -1  63 S14       30.30F WCI  -7
$$
MNZ006-009>011-018-025>026-051900-
   North Central Minnesota

CITY           SKY/WX    TMP DP  RH WIND       PRES   REMARKS
BAUDETTE       FAIR       8  -7  50 SW10      30.24F WCI  -6
FLAG ISLAND    FAIR       0  -8  71 S20       30.22F WCI -22
INTL FALLS     FAIR       7 -10  46 W8        30.28F WCI  -6
6HR MIN TEMP: -25; 6HR MAX TEMP:   7;

WASKISH        FAIR       9  -6  52 SW9       30.30F WCI  -5
BIG FORK       FAIR      10  -8  44 S12       30.30F WCI  -4
LONGVILLE      FAIR       9  -8  47 SW7       30.35S WCI  -3
GRAND RAPIDS   FAIR       7  -8  51 SW7       30.32S WCI  -5
CRANE LAKE     FAIR       7 -13  40 SW6       30.32F WCI  -3
ORR            FAIR       9 -15  33 SW7       30.26F WCI  -3
COOK           FAIR       7 -11  43 W8        30.30F WCI  -6
WALKER         FAIR       8  -9  46 SW8       30.32F WCI  -5
$$
MNZ012-019>021-037-051900-
   Northeast Minnesota

CITY           SKY/WX    TMP DP  RH WIND       PRES   REMARKS
DULUTH         FAIR       6  -9  50 SW10      30.33F WCI  -9
6HR MIN TEMP: -14; 6HR MAX TEMP:   6;

ELY            FAIR       7 -11  43 W7        30.29F WCI  -5
HIBBING        FAIR       7 -12  41 VRB6      30.32F WCI  -3
EVELETH        FAIR       7  -9  47 SW9       30.32F WCI  -7
DULUTH HARBOR  FAIR       9  -8  47 SW10G16   30.43F WCI  -6
TWO HARBORS    FAIR      10  -8  44 W8        30.34S WCI  -1
SILVER BAY     FAIR      12 -11  34 SW6       30.32F WCI   3
GRAND MARAIS     N/A     12   3  67 MISG      30.35F
G MARAIS ARPRT FAIR       7 -17  33 S9        30.23S WCI  -7
$$
MNZ029>031-032-039>041-046>048-054>057-064-051900-
   West Central Minnesota

CITY           SKY/WX    TMP DP  RH WIND       PRES   REMARKS
FERGUS FALLS   FAIR       7  -6  56 S13       30.42F WCI  -9
WHEATON        FAIR       7  -2  66 S13       30.42F WCI  -9
MORRIS         FAIR       9  -2  61 S12       30.40F WCI  -6
ALEXANDRIA     FAIR       4  -5  66 S12       30.39F WCI -12
ELBOW LAKE     FAIR       5  -4  66 S14       30.39F WCI -12
WADENA         FAIR       5  -8  56 SW8       30.36F WCI  -8
GLENWOOD       FAIR       7  -4  61 S9        30.41F WCI  -7
APPLETON       FAIR      12   0  57 S7        30.43F WCI   2
BENSON         FAIR      10  -4  52 SW8       30.43F WCI  -1
ORTONVILLE     FAIR      12  -2  52 S9        30.40F WCI   0
MADISON        FAIR      16   1  53 S10       30.42F WCI   3
WILLMAR        FAIR      10   0  61 S6        30.45F WCI   1
$$
MNZ033>034-036-042>043-049>051-058-059-051900-
   Central Minnesota

CITY           SKY/WX    TMP DP  RH WIND       PRES   REMARKS
ST CLOUD       FAIR       6  -5  60 VRB6      30.45F WCI  -4
6HR MIN TEMP: -16; 6HR MAX TEMP:   7;

SAUK CENTRE    FAIR       6  -4  63 SW12      30.43S WCI -10
PAYNESVILLE    FAIR       4  -6  63 S8        30.45S WCI  -9
AITKIN         FAIR       9  -8  47 SW7       30.37F WCI  -3
PINE RIVER     FAIR       7  -6  56 S8        30.39S WCI  -6
BRAINERD       FAIR       5  -7  57 SW10      30.39F WCI -10
STAPLES        FAIR       7  -8  51 SW6       30.38F WCI  -3
LONG PRAIRIE   FAIR       5  -6  61 S10       30.41S WCI -10
LITTLE FALLS   FAIR       5  -6  61 SW7       30.44S WCI  -7
LITCHFIELD     FAIR       9  -2  61 SW5       30.46S WCI   0
BUFFALO        FAIR       7  -5  58 S6        30.49F WCI  -3
MAPLE LAKE     FAIR       9  -3  60 S9        30.48S WCI  -5
$$
MNZ037-044-045-052-053-051900-
   East Central Minnesota

CITY           SKY/WX    TMP DP  RH WIND       PRES   REMARKS
PRINCETON      FAIR       9  -6  52 W6        30.46S WCI  -1
MORA           FAIR       7  -8  51 SW9       30.46F WCI  -7
CAMBRIDGE      FAIR       7  -6  56 SW7       30.46S WCI  -5
RUSH CITY      FAIR       6  -8  52 SW8       30.47F WCI  -6
MOOSE LAKE     FAIR      10  -9  40 SW9       30.38F WCI  -2
HINCKLEY       FAIR       9  -6  52 SW12      30.44S WCI  -6
CLOQUET        FAIR       7 -11  43 SW6       30.35F WCI  -3
MCGREGOR       FAIR       9  -4  56 S8        30.39S WCI  -4
$$
MNZ071>073-080-081-089-090-097-098-051900-
   Southwest Minnesota

CITY           SKY/WX    TMP DP  RH WIND       PRES   REMARKS
MONTEVIDEO     FAIR      14   3  62 SW8       30.45F WCI   3
GRANITE FALLS  FAIR      12   0  59 S10       30.47F WCI  -1
CANBY          FAIR      15   1  55 SW10      30.43F WCI   2
MARSHALL       FAIR      12  -2  52 SW12      30.44F WCI  -2
REDWOOD FALLS  FAIR       9  -2  61 S12       30.48S WCI  -6
OLIVIA         FAIR       9   1  72 S9        30.46F WCI  -5
PIPESTONE      FAIR       9   1  72 SW12      30.39F WCI  -6
WINDOM         FAIR      10   0  61 SW12      30.44F WCI  -4
WORTHINGTON    FAIR      10   0  61 SW12      30.45F WCI  -4
JACKSON        FAIR      12  -2  52 SW10      30.45F WCI  -1
TRACY          FAIR      13   0  57 SW13      30.44F WCI  -2
SLAYTON        FAIR      10  -3  55 SW12      30.42F WCI  -4
$$
MNZ065>067-074>077-082>085-091>093-051900-
   South Central Minnesota

CITY           SKY/WX    TMP DP  RH WIND       PRES   REMARKS
MANKATO        FAIR       9  -4  56 SW7       30.49F WCI  -3
NEW ULM        FAIR       9  -2  61 SW8       30.48F WCI  -4
ST JAMES       FAIR      10  -2  56 S9        30.50S WCI  -2
FAIRMONT       FAIR       9  -2  61 SW9       30.47F WCI  -5
GLENCOE        FAIR      10   0  66 S6        30.48F WCI   0
FARIBAULT      FAIR       9  -4  56 SW7       30.50S WCI  -3
OWATONNA       FAIR       7  -4  61 W7        30.49S WCI  -5
WASECA         FAIR       9   0  66 SW7       30.51S WCI  -3
ALBERT LEA     FAIR       7  -4  61 W6        30.48F WCI  -3
$$
MNZ078>079-086>088-094>096-051900-
   Southeast Minnesota

CITY           SKY/WX    TMP DP  RH WIND       PRES   REMARKS
ROCHESTER      FAIR       3  -6  66 SW7       30.48F WCI  -9
6HR MIN TEMP: -12; 6HR MAX TEMP:   3;

RED WING       FAIR       9  -9  43 W7        30.51F WCI  -3
STANTON        FAIR       8  -4  57 SW8       30.50F WCI  -4
DODGE CENTER   FAIR       5  -6  61 W9        30.47F WCI  -9
WINONA         FAIR      10  -4  52 W5        30.55S WCI   2
AUSTIN         FAIR       5  -6  61 NW3       30.49F
PRESTON        FAIR       3  -7  61 W9        30.49F WCI -11
$$
ABBREVIATIONS USED IN REMARKS
   TC - TEMPERATURES IN CELSIUS
  WCI - WIND CHILL INDEX
   HX - HEAT INDEX
  VSB - VISIBILITY
$$



USA.gov is the U.S. government's official web portal to all federal, state and local government web resources and services.